Photometre #845[NE_1.6_Dp] EastMalling_MO AOT

File : 20220920_845.hum

20/09/2022,06:37:56,TEMP=10.3,BA=5.60,STAT.A,ExtBa=12.20
20/09/2022,06:42:03,TEMP=10.8,BA=5.48,STAT.A,ExtBa=12.20
20/09/2022,06:45:23,TEMP=11.2,BA=5.48,STAT.D,ExtBa=12.20
20/09/2022,06:47:23,TEMP=11.7,BA=5.48,STAT.A,ExtBa=12.10
20/09/2022,06:51:23,TEMP=11.7,BA=5.48,STAT.D,ExtBa=12.20
20/09/2022,06:53:28,TEMP=12.3,BA=5.48,STAT.A,ExtBa=12.10
20/09/2022,06:57:23,TEMP=12.4,BA=5.48,STAT.D,ExtBa=12.10
20/09/2022,06:59:32,TEMP=12.9,BA=5.48,STAT.A,ExtBa=12.10
20/09/2022,07:03:23,TEMP=13.0,BA=5.40,STAT.D,ExtBa=12.10
20/09/2022,07:06:23,TEMP=13.4,BA=5.40,STAT.D,ExtBa=12.10
20/09/2022,07:08:37,TEMP=13.9,BA=5.40,STAT.A,ExtBa=12.10
20/09/2022,07:12:23,TEMP=14.0,BA=5.40,STAT.D,ExtBa=12.10
20/09/2022,07:15:23,TEMP=14.3,BA=5.40,STAT.D,ExtBa=12.10
20/09/2022,07:18:23,TEMP=14.6,BA=5.40,STAT.D,ExtBa=12.10
20/09/2022,07:20:28,TEMP=15.1,BA=5.44,STAT.B,ExtBa=12.10
20/09/2022,07:30:07,TEMP=16.0,BA=5.44,STAT.A,ExtBa=12.00
20/09/2022,07:32:43,TEMP=16.0,BA=5.44,STAT.A,ExtBa=12.10
20/09/2022,07:36:23,TEMP=16.1,BA=5.44,STAT.D,ExtBa=12.10
20/09/2022,07:38:25,TEMP=16.6,BA=5.44,STAT.A,ExtBa=12.10
20/09/2022,07:42:23,TEMP=16.3,BA=5.40,STAT.D,ExtBa=12.10
20/09/2022,07:44:33,TEMP=16.6,BA=5.40,STAT.A,ExtBa=12.10
20/09/2022,07:48:23,TEMP=16.3,BA=5.40,STAT.D,ExtBa=12.10
20/09/2022,07:51:23,TEMP=16.3,BA=5.40,STAT.D,ExtBa=12.10
20/09/2022,07:53:43,TEMP=16.5,BA=5.40,STAT.C,ExtBa=12.10
20/09/2022,08:19:04,TEMP=17.4,BA=5.40,STAT.A,ExtBa=12.00
20/09/2022,08:22:23,TEMP=17.1,BA=5.40,STAT.A,ExtBa=12.10
20/09/2022,08:27:24,TEMP=16.9,BA=5.40,STAT.D,ExtBa=12.10
20/09/2022,08:30:08,TEMP=17.1,BA=5.44,STAT.A,ExtBa=12.10
20/09/2022,08:33:24,TEMP=17.0,BA=5.44,STAT.D,ExtBa=12.10
20/09/2022,08:36:24,TEMP=17.0,BA=5.44,STAT.D,ExtBa=12.10
20/09/2022,08:39:24,TEMP=17.1,BA=5.44,STAT.D,ExtBa=12.00
20/09/2022,08:42:24,TEMP=17.2,BA=5.40,STAT.D,ExtBa=12.00
20/09/2022,08:45:24,TEMP=17.1,BA=5.40,STAT.D,ExtBa=12.10
20/09/2022,08:48:24,TEMP=17.2,BA=5.40,STAT.D,ExtBa=12.10
20/09/2022,08:50:31,TEMP=17.5,BA=5.36,STAT.A,ExtBa=12.00
20/09/2022,08:53:03,TEMP=17.5,BA=5.36,STAT.F,ExtBa=12.00
20/09/2022,09:19:27,TEMP=18.8,BA=5.36,STAT.D,ExtBa=12.00
20/09/2022,09:22:36,TEMP=18.5,BA=5.36,STAT.D,ExtBa=12.00
20/09/2022,09:27:24,TEMP=18.3,BA=5.36,STAT.D,ExtBa=12.00
20/09/2022,09:30:24,TEMP=18.5,BA=5.48,STAT.D,ExtBa=12.00
20/09/2022,09:33:24,TEMP=18.7,BA=5.48,STAT.D,ExtBa=12.00
20/09/2022,09:36:24,TEMP=18.9,BA=5.48,STAT.D,ExtBa=12.00
20/09/2022,09:38:24,TEMP=19.2,BA=5.48,STAT.D,ExtBa=12.00
20/09/2022,09:42:24,TEMP=19.0,BA=5.36,STAT.D,ExtBa=12.00
20/09/2022,09:45:24,TEMP=19.2,BA=5.36,STAT.D,ExtBa=12.00
20/09/2022,09:48:24,TEMP=19.3,BA=5.36,STAT.D,ExtBa=12.00
20/09/2022,09:51:24,TEMP=19.4,BA=5.36,STAT.D,ExtBa=12.00
20/09/2022,09:53:26,TEMP=19.6,BA=5.36,STAT.F,ExtBa=12.00
20/09/2022,10:19:44,TEMP=19.9,BA=5.36,STAT.D,ExtBa=12.00
20/09/2022,10:22:28,TEMP=19.9,BA=5.32,STAT.D,ExtBa=12.00
20/09/2022,10:33:24,TEMP=19.2,BA=5.48,STAT.D,ExtBa=12.00
20/09/2022,10:36:24,TEMP=19.6,BA=5.48,STAT.D,ExtBa=12.00
20/09/2022,10:38:16,TEMP=20.0,BA=5.48,STAT.D,ExtBa=12.00
20/09/2022,10:42:24,TEMP=19.9,BA=5.36,STAT.D,ExtBa=12.00
20/09/2022,10:45:24,TEMP=20.1,BA=5.36,STAT.D,ExtBa=12.00
20/09/2022,10:48:24,TEMP=20.2,BA=5.36,STAT.D,ExtBa=12.00
20/09/2022,10:51:24,TEMP=20.4,BA=5.40,STAT.D,ExtBa=12.00
20/09/2022,10:53:36,TEMP=20.9,BA=5.40,STAT.F,ExtBa=12.00
20/09/2022,11:06:24,TEMP=20.4,BA=5.48,STAT.D,ExtBa=12.00
20/09/2022,11:08:25,TEMP=20.6,BA=5.48,STAT.D,ExtBa=12.00
20/09/2022,11:12:24,TEMP=20.3,BA=5.36,STAT.D,ExtBa=12.00
20/09/2022,11:15:24,TEMP=20.3,BA=5.36,STAT.D,ExtBa=12.00
20/09/2022,11:22:28,TEMP=19.9,BA=5.48,STAT.D,ExtBa=12.00
20/09/2022,11:33:24,TEMP=19.8,BA=5.48,STAT.D,ExtBa=12.10
20/09/2022,11:36:24,TEMP=19.9,BA=5.48,STAT.D,ExtBa=12.00
20/09/2022,11:38:22,TEMP=20.2,BA=5.48,STAT.D,ExtBa=12.00
20/09/2022,11:51:24,TEMP=19.3,BA=5.48,STAT.D,ExtBa=12.10
20/09/2022,11:53:24,TEMP=19.7,BA=5.48,STAT.F,ExtBa=12.00
20/09/2022,12:16:59,TEMP=21.1,BA=5.36,STAT.D,ExtBa=12.00
20/09/2022,12:22:28,TEMP=20.4,BA=5.40,STAT.D,ExtBa=12.00
20/09/2022,12:33:24,TEMP=20.4,BA=5.48,STAT.D,ExtBa=12.00
20/09/2022,12:36:24,TEMP=20.8,BA=5.48,STAT.D,ExtBa=12.00
20/09/2022,12:38:21,TEMP=21.2,BA=5.48,STAT.D,ExtBa=12.00
20/09/2022,12:42:24,TEMP=20.9,BA=5.36,STAT.D,ExtBa=12.00
20/09/2022,12:45:24,TEMP=21.0,BA=5.36,STAT.D,ExtBa=12.00
20/09/2022,12:48:24,TEMP=21.0,BA=5.36,STAT.D,ExtBa=12.00
20/09/2022,12:51:24,TEMP=20.9,BA=5.36,STAT.D,ExtBa=12.00
20/09/2022,12:53:18,TEMP=21.2,BA=5.36,STAT.F,ExtBa=12.00
20/09/2022,13:18:05,TEMP=22.1,BA=5.32,STAT.D,ExtBa=12.00
20/09/2022,13:21:24,TEMP=22.0,BA=5.32,STAT.D,ExtBa=12.00
20/09/2022,13:23:22,TEMP=22.4,BA=5.32,STAT.D,ExtBa=12.00
20/09/2022,13:27:24,TEMP=22.2,BA=5.32,STAT.D,ExtBa=12.00
20/09/2022,13:30:24,TEMP=22.2,BA=5.44,STAT.D,ExtBa=12.00
20/09/2022,13:33:24,TEMP=22.1,BA=5.44,STAT.D,ExtBa=12.00
20/09/2022,13:36:24,TEMP=22.1,BA=5.44,STAT.D,ExtBa=12.00
20/09/2022,13:38:22,TEMP=22.4,BA=5.44,STAT.D,ExtBa=12.00
20/09/2022,13:42:24,TEMP=21.8,BA=5.32,STAT.D,ExtBa=12.00
20/09/2022,13:52:30,TEMP=21.2,BA=5.44,STAT.F,ExtBa=12.10
20/09/2022,14:17:58,TEMP=22.8,BA=5.32,STAT.D,ExtBa=12.00
20/09/2022,14:21:24,TEMP=22.3,BA=5.32,STAT.D,ExtBa=12.00
20/09/2022,14:23:22,TEMP=22.5,BA=5.32,STAT.D,ExtBa=12.00
20/09/2022,14:36:24,TEMP=22.0,BA=5.44,STAT.D,ExtBa=12.00
20/09/2022,14:38:21,TEMP=22.2,BA=5.44,STAT.D,ExtBa=12.00
20/09/2022,14:51:24,TEMP=20.6,BA=5.44,STAT.D,ExtBa=12.00
20/09/2022,14:53:22,TEMP=20.8,BA=5.44,STAT.F,ExtBa=12.00
20/09/2022,14:56:13,TEMP=20.5,BA=5.44,STAT.A,ExtBa=12.00
20/09/2022,15:09:24,TEMP=19.6,BA=5.44,STAT.D,ExtBa=12.00
20/09/2022,15:14:50,TEMP=19.5,BA=5.36,STAT.A,ExtBa=12.00
20/09/2022,15:27:24,TEMP=19.1,BA=5.48,STAT.D,ExtBa=12.10
20/09/2022,15:29:39,TEMP=19.3,BA=5.48,STAT.A,ExtBa=12.00
20/09/2022,15:41:50,TEMP=19.0,BA=5.48,STAT.A,ExtBa=12.10
20/09/2022,15:52:03,TEMP=19.1,BA=5.48,STAT.C,ExtBa=12.10
20/09/2022,16:00:47,TEMP=19.2,BA=5.48,STAT.A,ExtBa=12.10
20/09/2022,16:08:21,TEMP=19.2,BA=5.48,STAT.A,ExtBa=12.10
20/09/2022,16:14:58,TEMP=19.2,BA=5.36,STAT.A,ExtBa=12.10
20/09/2022,16:20:49,TEMP=19.2,BA=5.48,STAT.A,ExtBa=12.10
20/09/2022,16:26:01,TEMP=19.1,BA=5.48,STAT.B,ExtBa=12.10
20/09/2022,16:36:53,TEMP=18.8,BA=5.48,STAT.A,ExtBa=12.10
20/09/2022,16:45:26,TEMP=18.5,BA=5.48,STAT.A,ExtBa=12.10
20/09/2022,16:52:22,TEMP=18.3,BA=5.52,STAT.A,ExtBa=12.10
20/09/2022,16:58:06,TEMP=18.1,BA=5.52,STAT.A,ExtBa=12.10
20/09/2022,17:02:55,TEMP=17.9,BA=5.40,STAT.A,ExtBa=12.10
20/09/2022,17:07:01,TEMP=17.8,BA=5.40,STAT.A,ExtBa=12.10